Погода в Сухмени

Россия / Курганская область     54°52′28″N   66°35′09″E
темп.,
°C
ветер,
м/с
пор.,
м/с
влажн.,
%
обл.,
%
осадки,
мм/ч
давл.,
гПа
погр.,
м
6 декабря, пн
пн623:00−3зюз499688 0.8 1017285
02:00−2зюз3697100 0.0 1017194
05:00−3зюз2497100 0.0 101771
08:00−3зюз2398100 0.1 101679
11:00−2зсз1298100 2.1 1016129
14:00−3сз4697100 2.0 1015345
17:00−6зсз37965 2.5 1017118
20:00−9з4109759 0.0 1018156
7 декабря, вт
вт723:00−10сз5109036 0.1 1021358
02:00−15зсз511905 0.0 1024246
05:00−17зсз411945 0.0 1026201
08:00−18зсз38965 0.0 1029125
11:00−17зсз37965 0.0 1031151
14:00−16з24945 0.0 103384
17:00−19зюз34985 0.0 103549
20:00−19зюз36985 0.0 103679
8 декабря, ср
ср823:00−20зюз36985 0.0 103775
02:00−20зюз36975 0.0 103876
05:00−21з36975 0.0 103980
08:00−22з34985 0.0 104047
11:00−20зсз24975 0.0 104167
14:00−18з22965 0.0 104225
17:00−22зюз2210020 0.0 104312
20:00−22юз2210027 0.0 104422
9 декабря, чт
чт923:00−19ююз349589 0.0 104455
02:00−17ююз3788100 0.0 1043103
05:00−13ююз41184100 0.0 1042195
08:00−11ююз51379100 0.0 1042260
11:00−11юз6147735 0.0 1042288
14:00−10юз6157550 0.0 1041302
17:00−11юз6147576 0.0 1041251
20:00−12юз5137698 0.0 1041222
10 декабря, пт
пт1023:00−12юз5137596 0.0 1041199
02:00−11юз51375100 0.0 1040212
05:00−12ююз5127697 0.0 1040181
08:00−13юз4117533 0.0 1040154
11:00−12ююз5127433 0.0 1039173
14:00−9ююз51274100 0.0 1038198
17:00−9ююз41277100 0.0 1036181
20:00−8ююз41277100 0.0 1035177